Regional Weather Roundup
Issued by NWS

Home | Current Version | Previous Version | Text Only | Print | Product List | Glossary Off
Versions: 1 2 3 4 5 6 7 8 9 10 11 12 13 14 15 16 17 18 19 20 21 22 23 24 25 26 27 28 29 30 31 32 33 34 35 36 37 38 39 40 41 42 43 44 45 46 47 48 49 50

000
ASUS43 KLOT 252010
RWRIL

ILLINOIS REGIONAL WEATHER ROUNDUP
NATIONAL WEATHER SERVICE CHICAGO/ROMEOVILLE IL
200 PM CST THU DEC 25 2014

NOTE: "FAIR" INDICATES FEW OR NO CLOUDS BELOW 12,000 FEET WITH NO
SIGNIFICANT WEATHER AND/OR OBSTRUCTIONS TO VISIBILITY.

* THESE STATIONS ARE NOT UNDER NWS QUALITY CONTROL. THEY ALSO MAY NOT
  REPORT WEATHER SUCH AS PRECIPITATION OR FOG.

ILZ001-002-007-009-015-016-024-252100-
NORTHWEST ILLINOIS

CITY           SKY/WX    TMP DP  RH WIND       PRES   REMARKS
MOLINE         SUNNY     48  31  51 S14       29.86F
STERLING*      MOSUNNY   46  34  61 SW6       29.91S
SAVANNA*       SUNNY     45  31  59 S13       29.88S
$$

ILZ003-004-008-010-011-017-018-252100-
NORTH CENTRAL ILLINOIS

CITY           SKY/WX    TMP DP  RH WIND       PRES   REMARKS
ROCKFORD       PTSUNNY   44  32  62 S17       29.93S
FREEPORT*      MOSUNNY   42  32  68 S17       29.90S
ROCHELLE*      MOSUNNY   43  34  70 S16       29.92S
DE KALB*       MOSUNNY   40  33  76 S16       29.93F
PERU*          SUNNY     46  33  59 S15       29.94S
$$

ILZ005-006-012>014-019>023-252100-
NORTHEAST ILLINOIS

CITY           SKY/WX    TMP DP  RH WIND       PRES   REMARKS
CHICAGO-OHARE  PTSUNNY   41  31  67 S14       29.95R
CHICAGO-MIDWAY PTSUNNY   43  32  65 SW13      29.98R
AURORA         MOSUNNY   44  31  60 S15       29.95S
LANSING*       CLOUDY    41  33  74 SW17      29.99S
JOLIET*        MOSUNNY   43  32  64 SW10G18   29.97S
WAUKEGAN       MOSUNNY   39  29  67 SW13      29.93R WCI  31
DUPAGE AIRPORT MOSUNNY   42  31  64 SW13G23   29.94S
KANKAKEE*      PTSUNNY   43  36  75 SW14G21   30.01R
WHEELING       PTSUNNY   41  30  65 S13       29.97R
MORRIS*        MOSUNNY   44  35  70 SW15      29.96S
ROMEOVILLE*    MOSUNNY   42  32  67 SW15      29.96S
NORTHERLY ISL    N/A     40  29  65 S12         N/A
$$

LMZ740>746-252100-
SOUTHERN LAKE MICHIGAN

STATION/POSITION SKY/WX   TEMP    WIND        PRES    VSBY  WAVE
                          AIR SEA DIR/SP/G                  HT/PER
                          (F)     (DEG/KT/KT) (MB)    (MI)  (FT/S)
WAUKEGAN HARBOR            39                   N/A
HARRISON CRIB              38     200/ 18/ 21   N/A
BURNHAM HARBOR             40     190/  7/ 14   N/A
CALUMET HARBOR             39     190/  9/ 13 1014.0S
MICHIGAN CITY              38     190/ 17/ 21   N/A
$$

ILZ025>027-034>036-040-047-049-050-058-095>099-252100-
WEST-CENTRAL ILLINOIS

CITY           SKY/WX    TMP DP  RH WIND       PRES   REMARKS
QUINCY         SUNNY     49  31  49 S15       29.89F
GALESBURG*     SUNNY     46  34  62 S12G20    29.89F
MACOMB*        SUNNY     47  35  62 S12       29.92F
JACKSONVILLE*  SUNNY     49  35  57 S16       29.94F
PITTSFIELD*    SUNNY     49  33  54 S12G17    29.92F
$$

ILZ028>032-037-038-041>044-048-051>054-059>061-252100-
CENTRAL ILLINOIS

CITY           SKY/WX    TMP DP  RH WIND       PRES   REMARKS
PONTIAC        MOSUNNY   46  36  68 S16G22    29.98S
BLOOMINGTON    MOSUNNY   46  37  70 S17       29.98R
DECATUR        SUNNY     47  34  60 S17G26    30.00S
PEORIA         SUNNY     49  34  56 S16       29.93F
LACON*         SUNNY     46  31  56 SW12      29.93F
LINCOLN*       SUNNY     49  35  60 S9        29.97S
SPRINGFIELD    SUNNY     49  35  58 S18G29    29.97R
TAYLORVILLE    SUNNY     45  36  70 S16G25    29.99R
$$

ILZ033-039-045-046-055>057-062-063-252100-
EAST-CENTRAL ILLINOIS

CITY           SKY/WX    TMP DP  RH WIND       PRES   REMARKS
CHAMPAIGN      SUNNY     44  36  73 S18       30.01R
DANVILLE*      PTSUNNY   41  35  77 S14G20    30.01R
RANTOUL*       PTSUNNY   45  37  75 S15       30.01R
MATTOON        MOSUNNY   44  35  70 S15G23    30.02S
PARIS*         SUNNY     44  37  75 S14       30.05F
$$

ILZ079-100>102-252100-
SOUTHWEST ILLINOIS

CITY           SKY/WX    TMP DP  RH WIND       PRES   REMARKS
ALTON          SUNNY     50  32  50 S16G24    29.98F
BELLEVILLE     SUNNY     50  38  62 S17G24    29.99F
CAHOKIA*       SUNNY     52  33  48 S10G22    29.98F
SPARTA*        SUNNY     47  34  60 S12G18    30.04S
$$

ILZ064>066-069>071-074>076-080>082-084>086-088>090-092>094-252100-
SOUTH-CENTRAL ILLINOIS

CITY           SKY/WX    TMP DP  RH WIND       PRES   REMARKS
CARBONDALE     SUNNY     49  33  54 S18       30.07F
CAIRO*         SUNNY     50  37  59 S13       30.10F
EFFINGHAM*     SUNNY     47  32  54 S9G20     30.05S
MARION         MOSUNNY   48  36  61 S17       30.08F
MT. VERNON     SUNNY     48  36  61 S15       30.06F
CENTRALIA*     SUNNY     47  34  61 S15       30.03S
SALEM*         SUNNY     49  36  61 S16G24    30.04S
METROPOLIS*    SUNNY     49  37  61 S7        30.10F
$$

ILZ067-068-072-073-078-083-087-091-252100-
SOUTHEAST ILLINOIS

CITY           SKY/WX    TMP DP  RH WIND       PRES   REMARKS
LAWRENCEVILLE  MOSUNNY   48  35  60 S15       30.09S
FLORA*         SUNNY     47  36  65 S16G24    30.07S
FAIRFIELD*     MOSUNNY   47  37  65 S15       30.06F
HARRISBURG*    SUNNY     48  35  59 SW13G18   30.09F
ROBINSON*      SUNNY     46  35  64 S12       30.09S
CARMI*         SUNNY     50  37  61 S14       30.09F
$$

ABBREVIATIONS USED IN REMARKS
   TC - TEMPERATURE IN CELSIUS
  WCI - WIND CHILL INDEX
   HX - HEAT INDEX
  VSB - VISIBILITY
$$



USA.gov is the U.S. government's official web portal to all federal, state and local government web resources and services.